Find Starlink 35144

NORAD ID: 65538 Int'l Des: 2025-200 Owner: SPXS Country: US Constellation: starlink operational
LEOCIRCULARRETROGRADESSO

当前视图

正在加载3D地球...

About Starlink 35144

Starlink 35144 (NORAD 65538) is a starlink constellation satellite (v2 mini) launched Sep 6, 2025 by SPXS of US. It operates in LEO, CIRCULAR, RETROGRADE, SSO orbit with a mass of 575.00 kg.

即将过境

Passes for default location (London). Set your location on the main map for personalized predictions.

高度历史

Loading altitude history...

两行轨道根数

1 65538U 25200U 26262.46393878 .00015231 00000-0 47332-3 0 9996
2 65538 97.2884 328.8807 0000762 81.9166 278.2164 15.33435033 58484
Epoch: Sep 19, 2026 • Age: 30 hours

当前状态

高度 469.3 km
远地点 / 近地点 N/A
速度 7.63 km/s
星下点 32.09°N, 70.48°E
发射日期 Sep 6, 2025
运行时间 1 year
类型 internet

技术详情

分类 Payload
质量 575.00 kg
干质量 530.00 kg
长度 0.30 m
跨度 29.00 m
形状 ? Box + pan
制造商 SPXS
平台类型 Starlink V2MO
阶段状态 In Orbit
所有者/国家 SPXS/US

Most Searched